TimeMDT,TemperatureF,Dew PointF,Humidity,Sea Level PressureIn,VisibilityMPH,Wind Direction,Wind SpeedMPH,Gust SpeedMPH,PrecipitationIn,Events,Conditions,WindDirDegrees,DateUTC
12:53 AM,68.0,52.0,56,29.87,10.0,NE,6.9,-,N/A,,Clear,40,2013-07-08 06:53:00
1:53 AM,66.0,52.0,60,29.87,10.0,ENE,4.6,-,N/A,,Clear,60,2013-07-08 07:53:00
2:53 AM,62.1,52.0,70,29.86,10.0,Calm,Calm,-,N/A,,Clear,0,2013-07-08 08:53:00
3:53 AM,64.9,53.1,65,29.86,10.0,SSE,4.6,-,N/A,,Clear,160,2013-07-08 09:53:00
4:53 AM,63.0,53.1,70,29.87,10.0,Calm,Calm,-,N/A,,Partly Cloudy,0,2013-07-08 10:53:00
5:53 AM,61.0,54.0,78,29.87,10.0,Calm,Calm,-,N/A,,Partly Cloudy,0,2013-07-08 11:53:00
6:53 AM,64.0,54.0,70,29.88,10.0,Calm,Calm,-,N/A,,Partly Cloudy,0,2013-07-08 12:53:00
7:53 AM,66.9,54.0,63,29.91,10.0,North,6.9,-,N/A,,Partly Cloudy,360,2013-07-08 13:53:00
8:53 AM,72.0,55.0,55,29.91,10.0,NNE,3.5,-,N/A,,Partly Cloudy,20,2013-07-08 14:53:00
9:53 AM,73.9,55.9,53,29.90,10.0,SE,3.5,-,N/A,,Partly Cloudy,130,2013-07-08 15:53:00
10:53 AM,75.9,54.0,46,29.89,10.0,Variable,4.6,-,N/A,,Partly Cloudy,0,2013-07-08 16:53:00
11:53 AM,80.1,54.0,40,29.87,10.0,Variable,5.8,-,N/A,,Partly Cloudy,0,2013-07-08 17:53:00
12:53 PM,82.9,54.0,37,29.84,10.0,Calm,Calm,-,N/A,,Partly Cloudy,0,2013-07-08 18:53:00
1:53 PM,84.9,55.0,36,29.81,10.0,Variable,3.5,-,N/A,,Partly Cloudy,0,2013-07-08 19:53:00
2:53 PM,88.0,57.0,35,29.78,10.0,East,6.9,-,N/A,,Partly Cloudy,90,2013-07-08 20:53:00
3:53 PM,90.0,54.0,29,29.74,10.0,SE,9.2,-,N/A,,Scattered Clouds,130,2013-07-08 21:53:00
4:26 PM,90.0,54.0,29,29.83,10.0,ESE,12.7,20.7,N/A,Thunderstorm,Thunderstorm,110,2013-07-08 22:26:00
4:53 PM,66.0,57.0,73,29.91,6.0,NW,32.2,52.9,0.00,Rain-Thunderstorm,Thunderstorms and Rain,320,2013-07-08 22:53:00
5:00 PM,63.0,59.0,87,29.99,6.0,NW,18.4,41.4,0.03,Rain-Thunderstorm,Heavy Thunderstorms and Rain,320,2013-07-08 23:00:00
5:20 PM,63.0,60.1,90,29.95,7.0,NNE,19.6,25.3,0.38,Rain-Thunderstorm,Thunderstorms and Rain,30,2013-07-08 23:20:00
5:40 PM,64.0,59.0,84,29.93,10.0,NE,17.3,-,0.38,,Mostly Cloudy,50,2013-07-08 23:40:00
5:53 PM,64.9,59.0,81,29.87,10.0,NE,13.8,-,0.38,,Mostly Cloudy,50,2013-07-08 23:53:00
6:53 PM,66.0,59.0,78,29.90,10.0,South,10.4,-,0.01,,Mostly Cloudy,190,2013-07-09 00:53:00
7:53 PM,68.0,57.9,70,29.91,10.0,WSW,5.8,-,N/A,,Mostly Cloudy,250,2013-07-09 01:53:00
8:53 PM,68.0,59.0,73,29.89,10.0,NNW,4.6,-,N/A,,Scattered Clouds,330,2013-07-09 02:53:00
9:53 PM,66.0,61.0,84,29.93,10.0,Variable,3.5,-,N/A,,Scattered Clouds,0,2013-07-09 03:53:00
10:53 PM,64.9,61.0,87,29.95,10.0,NW,6.9,-,N/A,,Scattered Clouds,320,2013-07-09 04:53:00
11:53 PM,64.0,60.1,87,29.99,10.0,North,8.1,-,N/A,,Scattered Clouds,360,2013-07-09 05:53:00